Weather observations for the past three days for
Little Rock, Adams Field
Imperial (Metric)
Date Time (cdt) Wind (mph) Vis. (mi.) Weather Sky Cond. Temperature (ºF) Relative Humidity Wind Chill (°F) Heat Index (°F) Pressure Precipitation (in)
Air Dwpt 6 hour altimeter (in) sea level (mb) 1 hr 3 hr 6 hr
Max. Min.
18 16:53 SE 13 10.00 Mostly Cloudy SCT050 BKN080 BKN120 87.1 73 63% 95 30 1015.7
18 15:53 SE 13 10.00 Overcast SCT028 OVC100 87.1 73.9 65% 95 30.01 1016.1
18 14:53 S 13 G 24 10.00 Mostly Cloudy SCT028 BKN033 BKN110 87.1 73.9 65% 95 30.01 1016.2
18 13:53 S 13 10.00 Mostly Cloudy SCT031 BKN110 87.1 73 63% 95 30.02 1016.4
18 12:53 SE 12 10.00 Mostly Cloudy FEW030 BKN160 87.1 71.1 87.1 75.9 59% 93 30.02 1016.4
18 11:53 SE 8 10.00 Overcast SCT020 OVC120 84 73 70% 90 30.02 1016.4
18 10:53 Calm 10.00 Overcast FEW015 OVC110 82 73 74% 87 30.02 1016.3
18 09:53 S 5 10.00 Mostly Cloudy SCT013 BKN110 79 73 82% 82 30.03 1016.7
18 08:53 S 10 10.00 Overcast BKN011 OVC085 78.1 72 82% 80 30.02 1016.6
18 07:53 SE 6 10.00 Overcast OVC007 75.9 72 88% 76 30.02 1016.4
18 06:53 SE 3 10.00 Overcast BKN008 BKN014 OVC250 75.9 72 75.9 73 88% 76 30 1015.8
18 05:53 Calm 10.00 Mostly Cloudy FEW021 BKN250 73.9 71.1 91% 29.99 1015.4
18 04:53 Calm 10.00 Partly Cloudy SCT021 73.9 71.1 91% 29.97 1014.9
18 03:53 Calm 10.00 Mostly Cloudy FEW006 BKN250 73.9 71.1 91% 29.96 1014.5
18 02:53 S 5 10.00 Mostly Cloudy BKN250 73.9 71.1 91% 29.96 1014.5
18 01:53 S 7 10.00 Mostly Cloudy FEW008 BKN250 75 71.1 88% 75 29.97 1014.7
18 00:53 S 8 10.00 Mostly Cloudy BKN250 75 71.1 82 75 88% 75 29.98 1015.0
17 23:53 S 7 10.00 Mostly Cloudy BKN250 75.9 71.1 85% 76 29.97 1014.9
17 22:53 S 7 10.00 Mostly Cloudy BKN100 75.9 71.1 85% 76 29.96 1014.4
17 21:53 S 8 10.00 Mostly Cloudy BKN100 77 71.1 82% 79 29.95 1013.9
17 20:53 S 10 10.00 Mostly Cloudy BKN080 78.1 71.1 79% 80 29.95 1014.2
17 19:53 S 14 G 22 10.00 Mostly Cloudy BKN028 81 71.1 72% 85 29.96 1014.6
17 18:53 S 14 10.00 Mostly Cloudy FEW050 BKN080 82 72 84 77 72% 87 29.95 1014.1 0.01
17 16:53 SE 9 10.00 Mostly Cloudy SCT050 BKN080 82.9 71.1 67% 88 29.93 1013.5
17 15:53 S 6 10.00 Thunderstorm Light Rain SCT030 BKN040CB BKN050 77 71.1 82% 79 29.94 1013.6 0.01
17 14:53 S 6 10.00 Overcast OVC009 81 75 82% 87 29.96 1014.3
17 13:53 S 8 10.00 Fair CLR 82.9 75.9 79% 91 29.97 1014.6 0.01
17 12:53 S 8 10.00 Light Rain FEW025 SCT055 BKN100 81 75 86 77 82% 87 29.97 1014.9
17 11:53 SW 10 10.00 Mostly Cloudy SCT024 BKN033 84 73 70% 90 29.97 1014.9
17 10:53 SW 8 10.00 Mostly Cloudy SCT020 BKN028 82.9 73 72% 89 29.97 1014.7
17 09:53 SW 7 9.00 Overcast BKN009 OVC013 81 73 77% 86 29.98 1015.0
17 08:53 SW 8 10.00 Overcast OVC009 79 73 82% 82 29.97 1014.9
17 07:53 SW 7 10.00 Overcast OVC008 77 72 85% 78 29.96 1014.5
17 06:53 S 8 10.00 Overcast OVC013 75.9 71.1 80.1 73.9 85% 76 29.96 1014.4
17 05:53 S 5 10.00 Mostly Cloudy BKN250 73.9 69.1 85% 29.95 1014.2
17 04:53 S 6 10.00 Partly Cloudy SCT250 73.9 69.1 85% 29.94 1013.8
17 03:53 S 6 10.00 Partly Cloudy SCT250 75.9 69.1 79% 77 29.94 1013.6
17 02:53 S 9 10.00 Partly Cloudy SCT250 78.1 69.1 74% 80 29.92 1013.2
17 01:53 S 6 10.00 Partly Cloudy SCT250 78.1 71.1 79% 80 29.93 1013.3
17 00:53 S 5 10.00 Partly Cloudy SCT250 80.1 71.1 91.9 80.1 74% 84 29.93 1013.2
16 23:53 S 7 10.00 Mostly Cloudy BKN250 82 72 72% 87 29.93 1013.3
16 22:53 S 3 10.00 Mostly Cloudy FEW110 BKN250 82.9 72 70% 88 29.91 1012.9
16 21:53 S 3 10.00 A Few Clouds FEW110 84 70 63% 88 29.9 1012.3
16 20:53 S 5 10.00 A Few Clouds FEW110 86 69.1 57% 90 29.89 1011.9
16 19:53 S 8 10.00 A Few Clouds FEW060 FEW110 89.1 69.1 52% 94 29.88 1011.8
16 18:53 S 10 10.00 A Few Clouds FEW060 91.9 69.1 97 91.9 47% 97 29.88 1011.8
16 17:53 S 10 10.00 A Few Clouds FEW070 93.9 68 43% 98 29.88 1011.6
16 16:53 S 14 10.00 A Few Clouds FEW070 96.1 66.9 39% 100 29.87 1011.5
16 15:53 S 14 10.00 A Few Clouds FEW070 95 68 41% 100 29.88 1011.8
16 14:53 S 13 9.00 Partly Cloudy SCT060 96.1 68 40% 101 29.9 1012.4
16 13:53 S 10 G 18 10.00 A Few Clouds FEW250 95 69.1 43% 101 29.93 1013.3
16 12:53 S 12 10.00 Partly Cloudy SCT050 95 69.1 95 78.1 43% 101 29.95 1014.1
16 11:53 S 8 10.00 Partly Cloudy SCT050 SCT070 93 73 52% 102 29.95 1014.2
16 10:53 S 7 10.00 Partly Cloudy SCT060 91 72 54% 99 29.96 1014.4
16 09:53 SW 3 10.00 A Few Clouds FEW050 89.1 71.1 55% 95 29.96 1014.3
16 08:53 SW 6 10.00 Fair CLR 84 71.1 65% 89 29.96 1014.4
16 07:53 Calm 10.00 Fair CLR 81 72 74% 85 29.95 1014.1
16 06:53 Calm 8.00 Fair CLR 78.1 71.1 80.1 75 79% 80 29.93 1013.5
16 05:53 Calm 9.00 Fair CLR 75 70 84% 75 29.92 1013.1
16 04:53 Calm 9.00 Fair CLR 77 71.1 82% 79 29.92 1012.9
16 03:53 Calm 10.00 Fair CLR 77 70 79% 79 29.91 1012.7
16 02:53 Calm 10.00 Fair CLR 78.1 70 76% 80 29.91 1012.8
16 01:53 Calm 9.00 Fair CLR 80.1 71.1 74% 84 29.92 1012.9
16 00:53 S 7 10.00 Fair CLR 78.1 72 91 78.1 82% 80 29.92 1012.9
15 23:53 S 7 10.00 Fair CLR 79 72 79% 82 29.92 1013.1
15 22:53 S 3 10.00 Fair CLR 81 72 74% 85 29.92 1013.1
15 21:53 S 3 10.00 Fair CLR 82.9 71.1 67% 88 29.92 1012.9
15 20:53 S 5 10.00 Fair CLR 84.9 71.1 63% 90 29.9 1012.5
15 19:53 S 6 10.00 A Few Clouds FEW055 FEW120 88 71.1 57% 94 29.89 1012.2
15 18:53 S 7 10.00 A Few Clouds FEW055 91 70 95 91 50% 97 29.89 1012.2
15 17:53 S 7 10.00 A Few Clouds FEW055 93 69.1 46% 98 29.9 1012.3
Date Time (cdt) Wind (mph) Vis. (mi.) Weather Sky Cond. Air Dwpt Max. Min. Relative Humidity Wind Chill (°F) Heat Index (°F) altimeter (in) sea level (mb) 1 hr 3 hr 6 hr
6 hour
Temperature (ºF) Pressure Precipitation (in)